Location: Vancouver
(49.2500°N, 123.1330°W)
Time: 03:28:04
(UTC-07:00)

Cosmos 2333 Rocket - Visible Passes

Search period start: 30 May 2015 00:00
Search period end: 09 June 2015 00:00
Orbit: 838 x 864 km, 70.8° (Epoch: 29 May)

Date Brightness Start Highest point End Pass type
(mag) Time Alt. Az. Time Alt. Az. Time Alt. Az.
30 May 2.9 00:11:23 10° SW 00:17:02 53° NW 00:22:41 10° NNE visible
30 May 4.8 01:59:19 10° WNW 02:02:46 16° NNW 02:06:04 10° N visible
30 May 3.1 22:15:49 10° SSE 22:20:43 31° ESE 22:25:43 10° NE visible
30 May 3.0 23:59:09 10° SW 00:04:47 53° NW 00:10:27 10° NNE visible
31 May 4.8 01:47:05 10° WNW 01:50:31 16° NNW 01:53:50 10° N visible
31 May 3.1 22:03:34 10° SSE 22:08:29 31° ESE 22:13:29 10° NE visible
31 May 3.0 23:46:54 10° SW 23:52:33 53° NW 23:58:12 10° NNE visible
01 Jun 4.9 01:34:51 10° WNW 01:38:17 16° NNW 01:41:35 10° N visible
01 Jun 3.1 21:51:19 10° SSE 21:56:14 31° ESE 22:01:15 10° NE visible
01 Jun 3.0 23:34:40 10° SW 23:40:18 53° NW 23:45:58 10° NNE visible
02 Jun 4.9 01:22:36 10° WNW 01:26:02 16° NNW 01:29:21 10° N visible
02 Jun 3.0 23:22:25 10° SW 23:28:04 53° NW 23:33:43 10° NNE visible
03 Jun 4.9 01:10:22 10° WNW 01:13:48 16° NNW 01:17:06 10° N visible
03 Jun 3.1 23:10:11 10° SW 23:15:49 53° NW 23:21:29 10° NNE visible
04 Jun 5.0 00:58:08 10° WNW 01:01:34 15° NNW 01:04:51 10° N visible
04 Jun 3.1 22:57:56 10° SW 23:03:35 53° NW 23:09:14 10° NNE visible
05 Jun 5.0 00:45:54 10° WNW 00:49:19 15° NNW 00:52:37 10° N visible
05 Jun 5.5 04:21:33 10° N 04:23:39 12° NNE 04:25:51 10° NE visible
05 Jun 3.1 22:45:42 10° SW 22:51:21 53° NW 22:57:00 10° NNE visible
06 Jun 5.1 00:33:40 10° WNW 00:37:05 15° NNW 00:40:22 10° N visible
06 Jun 5.5 04:09:19 10° N 04:11:24 12° NNE 04:13:37 10° NE visible
06 Jun 3.2 22:33:28 10° SW 22:39:06 53° NW 22:44:45 10° NNE visible
07 Jun 5.1 00:21:25 10° WNW 00:24:50 15° NNW 00:28:08 10° N visible
07 Jun 5.6 03:57:05 10° N 03:59:10 12° NNE 04:01:22 10° NE visible
07 Jun 3.2 22:21:14 10° SW 22:26:52 53° NW 22:32:31 10° NNE visible
08 Jun 5.2 00:09:11 10° WNW 00:12:37 15° NNW 00:15:53 10° N visible
08 Jun 5.6 03:44:51 10° N 03:46:55 12° NNE 03:49:08 10° NE visible
08 Jun 3.2 22:08:59 10° SW 22:14:38 53° NW 22:20:16 10° NNE visible
